Eastover, SC

5:59 PM EDT on June 24, 2017 (GMT -0400)
McEntire Angs

Weather History for KMMT - August, 2013

Change the Weather History Date:

Wednesday, August 21, 2013

  Actual Average Record
Temperature  
Mean Temperature 79 °F -  
Max Temperature 90 °F 87 °F 100 °F (2007)
Min Temperature 69 °F 69 °F 64 °F (1998)
Cooling Degree Days 14    
Growing Degree Days 29 (Base 50)    
Moisture  
Dew Point 72 °F    
Average Humidity 94    
Maximum Humidity 100    
Minimum Humidity 60    
Precipitation  
Precipitation 0.03 in - - ()
Sea Level Pressure  
Sea Level Pressure 30.19 in    
Wind  
Wind Speed 1 mph (NE)    
Max Wind Speed 7 mph    
Max Gust Speed -    
Visibility 6 miles    
Events Fog , Rain , Thunderstorm    
Averages and records for this station are not official NWS values.
T = Trace of Precipitation, MM = Missing Value Source: NWS Daily Summary

Daily Weather History Graph

Daily Weather History Graph

Search for Another Location

Airport or City:

Trip Planner

Search our weather history database for the weather conditions in past years. The results will help you decide how hot, cold, wet, or windy it might be!

Date:

Astronomy

Aug. 21, 2013 Rise Set
Actual Time 6:49 AM EDT 8:02 PM EDT
Civil Twilight 6:23 AM EDT 8:28 PM EDT
Nautical Twilight 5:52 AM EDT 8:59 PM EDT
Astronomical Twilight 5:20 AM EDT 9:31 PM EDT
Moon 8:16 PM EDT (8/21) 7:23 AM EDT (8/21)
Length of Visible Light 14h 05m
Length of Day
13h 13m
Full, 100% of the Moon is Illuminated
Aug 21
Full
Aug 28
Last Quarter
Sep 5
New
Sep 12
First Quarter
Sep 19
Full

Hourly Weather History & Observations

Time (EDT) Temp. Heat Index Dew Point Humidity Pressure Visibility Wind Dir Wind Speed Gust Speed Precip Events Conditions
12:08 AM 71.6 °F - 71.6 °F 100% 30.19 in 0.8 mi Calm Calm - N/A   Clear
12:18 AM 71.6 °F - 71.6 °F 100% 30.19 in 0.5 mi Calm Calm - N/A Fog Fog
12:28 AM 71.6 °F - 71.6 °F 100% 30.19 in 1.8 mi Calm Calm - N/A   Clear
12:38 AM 71.6 °F - 71.6 °F 100% 30.19 in 0.8 mi NNW 1.2 mph - N/A   Clear
12:48 AM 71.6 °F - 71.6 °F 100% 30.18 in 0.5 mi North 2.3 mph - N/A Fog Fog
12:58 AM 72.3 °F - 72.3 °F 100% 30.19 in 0.2 mi Calm Calm - N/A Fog Fog
1:18 AM 71.6 °F - 71.6 °F 100% 30.18 in 0.5 mi ENE 1.2 mph - N/A Fog Fog
1:28 AM 71.6 °F - 71.6 °F 100% 30.18 in 1.0 mi Calm Calm - N/A   Clear
1:38 AM 71.6 °F - 71.6 °F 100% 30.17 in 1.2 mi East 2.3 mph - N/A   Clear
1:48 AM 71.6 °F - 71.6 °F 100% 30.17 in 1.0 mi ENE 1.2 mph - N/A   Clear
1:58 AM 71.6 °F - 71.6 °F 100% 30.18 in 1.5 mi Calm Calm - N/A   Clear
2:08 AM 71.6 °F - 71.6 °F 100% 30.18 in 9.0 mi Calm Calm - N/A   Clear
2:28 AM 71.6 °F - 71.6 °F 100% 30.18 in 0.8 mi NW 2.3 mph - N/A   Mostly Cloudy
2:38 AM 71.6 °F - 71.6 °F 100% 30.18 in 3.0 mi NNW 3.5 mph - N/A   Mostly Cloudy
2:48 AM 71.6 °F - 71.6 °F 100% 30.17 in 0.8 mi Calm Calm - N/A   Mist
2:58 AM 71.6 °F - 71.6 °F 100% 30.17 in 0.5 mi Calm Calm - N/A Fog Fog
3:08 AM 71.6 °F - 71.6 °F 100% 30.17 in 2.5 mi WNW 2.3 mph - N/A   Mostly Cloudy
3:18 AM 71.6 °F - 71.6 °F 100% 30.17 in 10.0 mi NNW 2.3 mph - N/A   Scattered Clouds
3:48 AM 69.8 °F - 69.8 °F 100% 30.16 in 0.8 mi East 1.2 mph - N/A   Clear
3:58 AM 70.3 °F - 70.3 °F 100% 30.17 in 1.0 mi Calm Calm - N/A   Clear
4:08 AM 69.8 °F - 69.8 °F 100% 30.16 in 1.2 mi Calm Calm - N/A   Clear
4:18 AM 69.8 °F - 69.8 °F 100% 30.16 in 1.5 mi Calm Calm - N/A   Clear
4:28 AM 69.8 °F - 69.8 °F 100% 30.16 in 3.0 mi Calm Calm - N/A   Clear
4:38 AM 69.8 °F - 69.8 °F 100% 30.16 in 3.0 mi Calm Calm - N/A   Clear
4:48 AM 69.8 °F - 69.8 °F 100% 30.16 in 1.0 mi NNW 1.2 mph - N/A   Clear
4:58 AM 69.8 °F - 69.8 °F 100% 30.17 in 2.0 mi NNW 1.2 mph - N/A   Clear
5:08 AM 69.8 °F - 69.8 °F 100% 30.16 in 5.0 mi Calm Calm - N/A   Clear
5:28 AM 69.8 °F - 69.8 °F 100% 30.17 in 1.0 mi Calm Calm - N/A   Clear
5:38 AM 69.8 °F - 69.8 °F 100% 30.17 in 1.2 mi East 1.2 mph - N/A   Clear
5:48 AM 69.8 °F - 69.8 °F 100% 30.17 in 3.0 mi NE 2.3 mph - N/A   Partly Cloudy
5:58 AM 69.8 °F - 69.8 °F 100% 30.19 in 3.0 mi NE 1.2 mph - N/A   Mostly Cloudy
6:28 AM 71.6 °F - 71.6 °F 100% 30.18 in 10.0 mi Calm Calm - N/A   Overcast
6:48 AM 71.6 °F - 71.6 °F 100% 30.18 in 10.0 mi ENE 2.3 mph - N/A   Overcast
6:58 AM 72.0 °F - 72.0 °F 100% 30.19 in 10.0 mi NE 1.2 mph - N/A   Overcast
7:08 AM 71.6 °F - 71.6 °F 100% 30.19 in 10.0 mi ENE 2.3 mph - N/A   Overcast
7:18 AM 73.4 °F - 73.4 °F 100% 30.19 in 10.0 mi ENE 4.6 mph - N/A   Overcast
7:28 AM 73.4 °F - 73.4 °F 100% 30.19 in 10.0 mi ENE 3.5 mph - N/A   Overcast
7:48 AM 73.4 °F - 73.4 °F 100% 30.21 in 10.0 mi Calm Calm - N/A   Overcast
7:58 AM 73.2 °F - 73.2 °F 100% 30.22 in 10.0 mi Calm Calm - N/A   Overcast
8:18 AM 73.4 °F - 73.4 °F 100% 30.21 in 10.0 mi East 1.2 mph - N/A   Overcast
8:48 AM 75.2 °F - 75.2 °F 100% 30.22 in 10.0 mi Variable 1.2 mph - N/A   Mostly Cloudy
8:58 AM 75.2 °F - 75.2 °F 100% 30.22 in 10.0 mi Variable 1.2 mph - N/A   Mostly Cloudy
9:06 AM 75.2 °F - 75.2 °F 100% 30.23 in 10.0 mi ENE 1.2 mph - N/A   Overcast
9:12 AM 75.2 °F - 75.2 °F 100% 30.23 in 10.0 mi East 1.2 mph - N/A   Overcast
9:25 AM 75.2 °F - 75.2 °F 100% 30.24 in 10.0 mi Variable 1.2 mph - N/A   Overcast
9:58 AM 76.6 °F - 76.6 °F 100% 30.25 in 10.0 mi Calm Calm - N/A   Mostly Cloudy
10:18 AM 77.0 °F - 77.0 °F 100% 30.25 in 10.0 mi SSW 1.2 mph - N/A   Overcast
10:28 AM 78.8 °F - 75.2 °F 89% 30.25 in 10.0 mi Calm Calm - N/A   Mostly Cloudy
10:38 AM 78.8 °F - 75.2 °F 89% 30.25 in 10.0 mi Variable 1.2 mph - N/A   Overcast
10:58 AM 80.6 °F 85.9 °F 74.7 °F 82% 30.25 in 10.0 mi Variable 2.3 mph - N/A   Mostly Cloudy
11:28 AM 84.2 °F 92.3 °F 75.2 °F 74% 30.23 in 10.0 mi South 3.5 mph - N/A   Mostly Cloudy
11:58 AM 84.9 °F 93.7 °F 75.6 °F 73% 30.23 in 10.0 mi South 5.8 mph - N/A   Scattered Clouds
12:58 PM 86.0 °F 93.8 °F 73.8 °F 67% 30.21 in 10.0 mi SSE 6.9 mph - N/A   Scattered Clouds
1:58 PM 87.8 °F 95.6 °F 73.2 °F 62% 30.19 in 10.0 mi Variable 5.8 mph - N/A   Scattered Clouds
2:58 PM 86.4 °F 93.4 °F 73.0 °F 64% 30.17 in 10.0 mi SW 5.8 mph - N/A   Mostly Cloudy
3:58 PM 88.7 °F 96.7 °F 73.0 °F 60% 30.15 in 10.0 mi SSE 4.6 mph - N/A   Mostly Cloudy
4:58 PM 86.7 °F 93.7 °F 72.7 °F 63% 30.14 in 10.0 mi SW 4.6 mph - N/A   Mostly Cloudy
5:58 PM 89.6 °F 98.7 °F 73.9 °F 60% 30.13 in 10.0 mi Variable 5.8 mph - N/A   Mostly Cloudy
6:58 PM 80.2 °F 83.6 °F 70.5 °F 72% 30.14 in 10.0 mi North 5.8 mph - N/A   Mostly Cloudy
7:58 PM 77.7 °F - 71.8 °F 82% 30.12 in 10.0 mi East 5.8 mph - N/A   Mostly Cloudy
8:50 PM 77.0 °F - 73.4 °F 89% 30.15 in 10.0 mi SSE 3.5 mph - N/A Thunderstorm Thunderstorm
8:58 PM 76.6 °F - 73.4 °F 90% 30.15 in 10.0 mi Calm Calm - N/A Thunderstorm Thunderstorm
9:14 PM 77.0 °F - 73.4 °F 89% 30.17 in 10.0 mi SSW 3.5 mph - N/A Rain , Thunderstorm Light Thunderstorms and Rain
9:58 PM 74.5 °F - 71.1 °F 89% 30.17 in 10.0 mi Calm Calm - 0.01 in Rain , Thunderstorm Light Thunderstorms and Rain
10:28 PM 73.4 °F - 71.6 °F 94% 30.18 in 10.0 mi WNW 3.5 mph - N/A Rain Light Rain
10:37 PM 73.4 °F - 71.6 °F 94% 30.18 in 10.0 mi North 3.5 mph - N/A   Overcast
10:58 PM 73.2 °F - 72.5 °F 98% 30.19 in 10.0 mi North 3.5 mph - 0.02 in   Overcast
11:58 PM 73.2 °F - 73.2 °F 100% 30.18 in 10.0 mi SE 1.2 mph - N/A   Mostly Cloudy